User: anonymous   Login
Location: Unspecified
(0.0000°N, 0.0000°E)
Time: 09:31:27
(UTC+01:00)
Language:

Cosmos 1892 Rocket - Orbit

View from above orbital plane
View from above orbital plane
View from above satellite
View from above satellite

Ground track
Ground track

The orbit data is extracted from the following two-line orbital elements,

1 18422U 87088B   14331.50238777  .00000572  00000-0  68124-4 0  4162
2 18422 082.5106 330.6585 0018201 269.4490 204.2015 14.82523164463606
Epoch (UTC): 27 November 2014 12:03:26
Eccentricity: 0.0018201
inclination: 82.5106°
perigee height: 608 km
apogee height: 634 km
right ascension of ascending node: 330.6585°
argument of perigee: 269.4490°
revolutions per day: 14.82523164
mean anomaly at epoch: 204.2015°
orbit number at epoch: 46360

The dashed part of the orbit path shows where the satellite is in the earth's shadow,  

DLR